| time (UTC) | temp C | wind direction | speed KPH | gust KPH | rain 1hr cm | rain 24hr cm | rain mn cm | humidity % | barometer mb |
| 20260508100530 | 9 | 304 | 0.0 | 0.0 | 0.00 | 0.00 | 0.00 | 92 | 1018.5 |
| 20260508100027 | 9 | 304 | 0.0 | 0.0 | 0.00 | 0.00 | 0.00 | 91 | 1018.6 |
| 20260508095524 | 9 | 304 | 0.0 | 0.0 | 0.00 | 0.00 | 0.00 | 91 | 1018.6 |
| 20260508095021 | 10 | 304 | 0.0 | 0.0 | 0.00 | 0.00 | 0.00 | 91 | 1018.3 |
| 20260508094518 | 10 | 304 | 0.0 | 0.0 | 0.00 | 0.00 | 0.00 | 91 | 1018.3 |
| 20260508094015 | 10 | 304 | 0.0 | 0.0 | 0.00 | 0.00 | 0.00 | 91 | 1018.4 |
| 20260508093512 | 10 | 304 | 0.0 | 0.0 | 0.00 | 0.00 | 0.00 | 91 | 1018.4 |
| 20260508093010 | 9 | 304 | 0.0 | 0.0 | 0.00 | 0.00 | 0.00 | 91 | 1018.4 |
| 20260508092507 | 9 | 304 | 0.0 | 0.0 | 0.00 | 0.00 | 0.00 | 91 | 1018.5 |
| 20260508092006 | 10 | 304 | 0.0 | 0.0 | 0.00 | 0.00 | 0.00 | 90 | 1018.3 |
| 20260508091502 | 10 | 304 | 0.0 | 0.0 | 0.00 | 0.00 | 0.00 | 90 | 1018.4 |
| 20260508090959 | 10 | 304 | 0.0 | 0.0 | 0.00 | 0.00 | 0.00 | 90 | 1018.4 |
| 20260508090457 | 10 | 304 | 0.0 | 0.0 | 0.00 | 0.00 | 0.00 | 90 | 1018.2 |
| 20260508085953 | 10 | 304 | 0.0 | 0.0 | 0.00 | 0.00 | 0.00 | 90 | 1018.1 |
| 20260508085450 | 10 | 304 | 0.0 | 0.0 | 0.00 | 0.00 | 0.00 | 90 | 1018.2 |
| 20260508084947 | 10 | 304 | 0.0 | 0.0 | 0.00 | 0.00 | 0.00 | 89 | 1018.2 |
| 20260508084444 | 10 | 304 | 0.0 | 0.0 | 0.00 | 0.00 | 0.00 | 89 | 1018.2 |
| 20260508083942 | 10 | 304 | 0.0 | 0.0 | 0.00 | 0.00 | 0.00 | 89 | 1017.9 |
| 20260508083438 | 10 | 304 | 0.0 | 0.0 | 0.00 | 0.00 | 0.00 | 88 | 1018.0 |
| 20260508082938 | 10 | 304 | 0.0 | 0.0 | 0.00 | 0.00 | 0.00 | 89 | 1018.0 |
| 20260508082436 | 10 | 304 | 0.0 | 0.0 | 0.00 | 0.00 | 0.00 | 89 | 1018.2 |
| 20260508081934 | 10 | 304 | 0.0 | 0.0 | 0.00 | 0.00 | 0.00 | 89 | 1017.8 |
| 20260508081430 | 10 | 304 | 0.0 | 0.0 | 0.00 | 0.00 | 0.00 | 89 | 1017.9 |
| 20260508080926 | 10 | 304 | 0.0 | 0.0 | 0.00 | 0.00 | 0.00 | 89 | 1017.9 |
| 20260508080425 | 10 | 304 | 0.0 | 0.0 | 0.00 | 0.00 | 0.00 | 89 | 1018.1 |
| 20260508075921 | 10 | 304 | 0.0 | 0.0 | 0.00 | 0.00 | 0.00 | 88 | 1018.0 |
| 20260508075418 | 10 | 304 | 0.0 | 0.0 | 0.00 | 0.00 | 0.00 | 87 | 1017.8 |
| 20260508074916 | 10 | 304 | 0.0 | 0.0 | 0.00 | 0.00 | 0.00 | 87 | 1017.9 |
| 20260508074413 | 10 | 304 | 0.0 | 0.0 | 0.00 | 0.00 | 0.00 | 86 | 1017.9 |
| 20260508073910 | 10 | 304 | 0.0 | 0.0 | 0.00 | 0.00 | 0.00 | 86 | 1018.0 |
| 20260508073408 | 10 | 304 | 0.0 | 0.0 | 0.00 | 0.00 | 0.00 | 85 | 1017.8 |
| 20260508072904 | 10 | 304 | 0.0 | 0.0 | 0.00 | 0.00 | 0.00 | 84 | 1017.7 |
| 20260508072401 | 11 | 304 | 0.0 | 0.0 | 0.00 | 0.00 | 0.00 | 82 | 1017.8 |
| 20260508071858 | 11 | 304 | 0.0 | 0.0 | 0.00 | 0.00 | 0.00 | 82 | 1017.7 |
| 20260508071356 | 11 | 304 | 0.0 | 0.0 | 0.00 | 0.00 | 0.00 | 82 | 1017.7 |
| 20260508070853 | 11 | 304 | 0.0 | 0.0 | 0.00 | 0.00 | 0.00 | 81 | 1017.8 |
| 20260508070351 | 11 | 304 | 0.0 | 0.0 | 0.00 | 0.00 | 0.00 | 82 | 1017.8 |
| 20260508065849 | 11 | 304 | 0.0 | 0.0 | 0.00 | 0.00 | 0.00 | 81 | 1017.6 |
| 20260508065347 | 11 | 304 | 0.0 | 0.0 | 0.00 | 0.00 | 0.00 | 81 | 1017.8 |
| 20260508064845 | 11 | 304 | 0.0 | 0.0 | 0.00 | 0.00 | 0.00 | 81 | 1017.8 |
| 20260508064342 | 11 | 304 | 0.0 | 0.0 | 0.00 | 0.00 | 0.00 | 82 | 1017.8 |
| 20260508063839 | 11 | 304 | 0.0 | 0.0 | 0.00 | 0.00 | 0.00 | 81 | 1017.7 |
| 20260508063337 | 11 | 304 | 0.0 | 0.0 | 0.00 | 0.00 | 0.00 | 82 | 1017.8 |
| 20260508062834 | 11 | 304 | 0.0 | 0.0 | 0.00 | 0.00 | 0.00 | 82 | 1017.9 |
| 20260508062331 | 11 | 304 | 0.0 | 0.0 | 0.00 | 0.00 | 0.00 | 82 | 1017.8 |
| 20260508061828 | 11 | 304 | 0.0 | 0.0 | 0.00 | 0.00 | 0.00 | 82 | 1017.6 |
| 20260508061326 | 11 | 304 | 0.0 | 0.0 | 0.00 | 0.00 | 0.00 | 82 | 1017.7 |
| 20260508060822 | 11 | 304 | 0.0 | 0.0 | 0.00 | 0.00 | 0.00 | 81 | 1017.6 |
| 20260508060320 | 11 | 304 | 0.0 | 0.0 | 0.00 | 0.00 | 0.00 | 80 | 1017.8 |
| 20260508055815 | 11 | 304 | 0.0 | 0.0 | 0.00 | 0.00 | 0.00 | 81 | 1017.6 |
| 20260508055313 | 11 | 304 | 0.0 | 0.0 | 0.00 | 0.00 | 0.00 | 80 | 1017.6 |
| 20260508054809 | 11 | 305 | 0.0 | 0.0 | 0.00 | 0.00 | 0.00 | 80 | 1017.6 |
| 20260508054307 | 12 | 305 | 0.0 | 0.0 | 0.00 | 0.00 | 0.00 | 79 | 1017.6 |
| 20260508053803 | 12 | 304 | 0.0 | 0.0 | 0.00 | 0.00 | 0.00 | 78 | 1017.5 |
| 20260508053301 | 12 | 304 | 0.0 | 0.0 | 0.00 | 0.00 | 0.00 | 78 | 1017.6 |
| 20260508052758 | 12 | 305 | 0.0 | 0.0 | 0.00 | 0.00 | 0.00 | 77 | 1017.6 |
| 20260508052255 | 12 | 305 | 0.0 | 0.0 | 0.00 | 0.00 | 0.00 | 77 | 1017.5 |
| 20260508051751 | 12 | 305 | 0.0 | 0.0 | 0.00 | 0.00 | 0.00 | 76 | 1017.6 |
| 20260508051246 | 12 | 305 | 0.0 | 0.0 | 0.00 | 0.00 | 0.00 | 76 | 1017.6 |
| 20260508050743 | 12 | 305 | 0.0 | 0.0 | 0.00 | 0.00 | 0.00 | 75 | 1017.3 |
| 20260508050240 | 13 | 305 | 0.0 | 0.0 | 0.00 | 0.00 | 0.00 | 75 | 1017.4 |
| 20260508045735 | 13 | 305 | 0.0 | 0.0 | 0.00 | 0.00 | 0.00 | 72 | 1017.6 |
| 20260508045234 | 13 | 305 | 0.0 | 0.0 | 0.00 | 0.00 | 0.00 | 73 | 1017.5 |
| 20260508044731 | 13 | 305 | 0.0 | 0.0 | 0.00 | 0.00 | 0.00 | 74 | 1017.6 |
| 20260508044228 | 13 | 305 | 0.0 | 0.0 | 0.00 | 0.00 | 0.00 | 74 | 1017.5 |
| 20260508043724 | 13 | 305 | 0.0 | 0.0 | 0.00 | 0.00 | 0.00 | 74 | 1017.3 |
| 20260508043221 | 13 | 305 | 0.0 | 0.0 | 0.00 | 0.00 | 0.00 | 73 | 1017.5 |
| 20260508042718 | 13 | 305 | 0.0 | 0.0 | 0.00 | 0.00 | 0.00 | 70 | 1017.7 |
| 20260508042215 | 13 | 305 | 0.0 | 0.0 | 0.00 | 0.00 | 0.00 | 69 | 1017.3 |
| 20260508041711 | 13 | 305 | 0.0 | 0.0 | 0.00 | 0.00 | 0.00 | 68 | 1017.3 |
| 20260508041209 | 14 | 305 | 0.0 | 0.0 | 0.00 | 0.00 | 0.00 | 68 | 1017.4 |
| 20260508040705 | 14 | 305 | 0.0 | 0.0 | 0.00 | 0.00 | 0.00 | 67 | 1017.3 |
| 20260508040202 | 15 | 305 | 0.0 | 0.0 | 0.00 | 0.00 | 0.00 | 66 | 1017.2 |
| 20260508035659 | 15 | 305 | 0.0 | 0.0 | 0.00 | 0.00 | 0.00 | 65 | 1017.4 |
| 20260508035157 | 15 | 305 | 0.0 | 0.0 | 0.00 | 0.00 | 0.00 | 64 | 1017.3 |
| 20260508034653 | 15 | 305 | 0.0 | 0.0 | 0.00 | 0.00 | 0.00 | 63 | 1017.3 |
| 20260508034150 | 15 | 305 | 0.0 | 0.0 | 0.00 | 0.00 | 0.00 | 63 | 1017.2 |
| 20260508033648 | 16 | 305 | 0.0 | 0.0 | 0.00 | 0.00 | 0.00 | 59 | 1017.1 |
| 20260508033146 | 16 | 305 | 0.0 | 0.0 | 0.00 | 0.00 | 0.00 | 60 | 1016.9 |
| 20260508032643 | 17 | 305 | 0.0 | 0.0 | 0.00 | 0.00 | 0.00 | 59 | 1016.8 |
| 20260508032140 | 17 | 305 | 0.0 | 0.0 | 0.00 | 0.00 | 0.00 | 56 | 1017.0 |
| 20260508031637 | 17 | 305 | 0.0 | 0.0 | 0.00 | 0.00 | 0.00 | 56 | 1016.8 |
| 20260508031133 | 17 | 305 | 0.0 | 0.0 | 0.00 | 0.00 | 0.00 | 55 | 1016.7 |
| 20260508030629 | 18 | 305 | 0.0 | 0.0 | 0.00 | 0.00 | 0.00 | 53 | 1016.5 |
| 20260508030127 | 18 | 305 | 0.0 | 0.0 | 0.00 | 0.00 | 0.00 | 54 | 1016.8 |
| 20260508025623 | 18 | 305 | 0.0 | 0.0 | 0.00 | 0.00 | 0.00 | 52 | 1016.8 |
| 20260508025121 | 19 | 305 | 0.0 | 0.0 | 0.00 | 0.00 | 0.00 | 49 | 1016.9 |
| 20260508024617 | 19 | 305 | 0.0 | 0.0 | 0.00 | 0.00 | 0.00 | 47 | 1016.8 |
| 20260508024114 | 19 | 305 | 0.0 | 0.0 | 0.00 | 0.00 | 0.00 | 48 | 1016.9 |
| 20260508023610 | 20 | 305 | 0.0 | 0.0 | 0.00 | 0.00 | 0.00 | 48 | 1016.9 |
| 20260508023108 | 20 | 305 | 0.0 | 0.0 | 0.00 | 0.00 | 0.00 | 50 | 1017.0 |
| 20260508022603 | 20 | 305 | 0.0 | 0.0 | 0.00 | 0.00 | 0.00 | 47 | 1017.0 |
| 20260508022101 | 20 | 305 | 0.0 | 0.0 | 0.00 | 0.00 | 0.00 | 47 | 1017.1 |
| 20260508021556 | 21 | 305 | 0.0 | 0.0 | 0.00 | 0.00 | 0.00 | 47 | 1017.1 |
| 20260508021052 | 22 | 305 | 1.6 | 1.6 | 0.00 | 0.00 | 0.00 | 45 | 1017.4 |
| 20260508020550 | 22 | 305 | 0.0 | 0.0 | 0.00 | 0.00 | 0.00 | 41 | 1017.3 |
| 20260508020048 | 23 | 305 | 0.0 | 0.0 | 0.00 | 0.00 | 0.00 | 42 | 1017.6 |
| 20260508015545 | 22 | 313 | 0.0 | 0.0 | 0.00 | 0.00 | 0.00 | 42 | 1017.1 |
| 20260508015042 | 22 | 328 | 0.0 | 0.0 | 0.00 | 0.00 | 0.00 | 42 | 1017.1 |
| 20260508014538 | 21 | 331 | 0.0 | 0.0 | 0.00 | 0.00 | 0.00 | 42 | 1017.2 |
| 20260508014034 | 21 | 302 | 1.6 | 3.2 | 0.00 | 0.00 | 0.00 | 41 | 1017.3 |
| 20260508013530 | 21 | 302 | 0.0 | 1.6 | 0.00 | 0.00 | 0.00 | 41 | 1017.3 |
| 20260508013028 | 21 | 10 | 4.8 | 4.8 | 0.00 | 0.00 | 0.00 | 41 | 1017.0 |
| 20260508012525 | 21 | 314 | 0.0 | 1.6 | 0.00 | 0.00 | 0.00 | 43 | 1017.0 |
| 20260508012022 | 21 | 307 | 1.6 | 1.6 | 0.00 | 0.00 | 0.00 | 45 | 1017.1 |
| 20260508011521 | 21 | 302 | 0.0 | 1.6 | 0.00 | 0.00 | 0.00 | 42 | 1017.1 |
| 20260508011018 | 21 | 306 | 1.6 | 1.6 | 0.00 | 0.00 | 0.00 | 44 | 1017.3 |
| 20260508010514 | 21 | 314 | 1.6 | 1.6 | 0.00 | 0.00 | 0.00 | 43 | 1017.2 |
| 20260508010012 | 21 | 303 | 3.2 | 3.2 | 0.00 | 0.00 | 0.00 | 43 | 1017.2 |
| 20260508005508 | 21 | 315 | 0.0 | 1.6 | 0.00 | 0.00 | 0.00 | 43 | 1017.5 |
| 20260508005005 | 21 | 304 | 0.0 | 0.0 | 0.00 | 0.00 | 0.00 | 42 | 1017.1 |
| 20260508004501 | 21 | 308 | 3.2 | 3.2 | 0.00 | 0.00 | 0.00 | 43 | 1017.4 |
| 20260508003958 | 21 | 306 | 1.6 | 3.2 | 0.00 | 0.00 | 0.00 | 44 | 1017.5 |
| 20260508003454 | 21 | 297 | 0.0 | 1.6 | 0.00 | 0.00 | 0.00 | 42 | 1017.3 |
| 20260508002952 | 21 | 297 | 1.6 | 1.6 | 0.00 | 0.00 | 0.00 | 42 | 1017.5 |
| 20260508002448 | 21 | 302 | 0.0 | 1.6 | 0.00 | 0.00 | 0.00 | 43 | 1017.3 |
| 20260508001944 | 21 | 288 | 0.0 | 1.6 | 0.00 | 0.00 | 0.00 | 39 | 1017.4 |
| 20260508001441 | 21 | 321 | 0.0 | 0.0 | 0.00 | 0.00 | 0.00 | 37 | 1017.5 |
| 20260508000937 | 21 | 322 | 0.0 | 1.6 | 0.00 | 0.00 | 0.00 | 36 | 1017.5 |
| 20260508000434 | 21 | 298 | 4.8 | 4.8 | 0.00 | 0.00 | 0.00 | 36 | 1017.6 |
| 20260507235930 | 21 | 300 | 0.0 | 1.6 | 0.00 | 0.00 | 0.00 | 37 | 1017.6 |
| 20260507235427 | 21 | 290 | 1.6 | 1.6 | 0.00 | 0.00 | 0.00 | 35 | 1017.7 |
| 20260507234924 | 20 | 294 | 0.0 | 0.0 | 0.00 | 0.00 | 0.00 | 37 | 1017.8 |
| 20260507234421 | 20 | 304 | 1.6 | 4.8 | 0.00 | 0.00 | 0.00 | 36 | 1017.8 |
| 20260507233917 | 20 | 297 | 0.0 | 0.0 | 0.00 | 0.00 | 0.00 | 37 | 1017.7 |
| 20260507233414 | 20 | 315 | 0.0 | 1.6 | 0.00 | 0.00 | 0.00 | 36 | 1017.9 |
| 20260507232913 | 20 | 305 | 0.0 | 0.0 | 0.00 | 0.00 | 0.00 | 38 | 1017.9 |
| 20260507232409 | 20 | 348 | 0.0 | 0.0 | 0.00 | 0.00 | 0.00 | 38 | 1018.2 |
| 20260507231907 | 20 | 302 | 1.6 | 3.2 | 0.00 | 0.00 | 0.00 | 36 | 1018.0 |
| 20260507231403 | 20 | 286 | 0.0 | 1.6 | 0.00 | 0.00 | 0.00 | 39 | 1018.1 |
| 20260507230859 | 20 | 282 | 4.8 | 8.0 | 0.00 | 0.00 | 0.00 | 40 | 1018.2 |
| 20260507230357 | 20 | 280 | 1.6 | 1.6 | 0.00 | 0.00 | 0.00 | 38 | 1018.1 |
| 20260507225856 | 20 | 290 | 1.6 | 1.6 | 0.00 | 0.00 | 0.00 | 40 | 1018.1 |
| 20260507225353 | 20 | 320 | 0.0 | 1.6 | 0.00 | 0.00 | 0.00 | 41 | 1018.3 |
| 20260507224849 | 20 | 302 | 1.6 | 3.2 | 0.00 | 0.00 | 0.00 | 40 | 1018.6 |
| 20260507224346 | 20 | 317 | 1.6 | 3.2 | 0.00 | 0.00 | 0.00 | 40 | 1018.5 |
| 20260507223841 | 20 | 311 | 8.0 | 9.7 | 0.00 | 0.00 | 0.00 | 43 | 1018.5 |
| 20260507223338 | 20 | 28 | 1.6 | 1.6 | 0.00 | 0.00 | 0.00 | 43 | 1018.5 |
| 20260507222835 | 20 | 296 | 1.6 | 1.6 | 0.00 | 0.00 | 0.00 | 43 | 1018.6 |
| 20260507222332 | 20 | 315 | 0.0 | 1.6 | 0.00 | 0.00 | 0.00 | 47 | 1018.6 |
| 20260507221829 | 20 | 315 | 1.6 | 3.2 | 0.00 | 0.00 | 0.00 | 45 | 1018.8 |
| 20260507221325 | 20 | 325 | 1.6 | 3.2 | 0.00 | 0.00 | 0.00 | 47 | 1018.8 |
| 20260507220821 | 20 | 203 | 0.0 | 1.6 | 0.00 | 0.00 | 0.00 | 47 | 1018.8 |
| 20260507220320 | 20 | 301 | 0.0 | 0.0 | 0.00 | 0.00 | 0.00 | 47 | 1018.9 |
| 20260507215816 | 20 | 312 | 0.0 | 1.6 | 0.00 | 0.00 | 0.00 | 48 | 1019.0 |
| 20260507215313 | 19 | 282 | 0.0 | 1.6 | 0.00 | 0.00 | 0.00 | 47 | 1019.0 |
| 20260507214810 | 20 | 42 | 4.8 | 4.8 | 0.00 | 0.00 | 0.00 | 50 | 1019.0 |
| 20260507214308 | 19 | 141 | 1.6 | 3.2 | 0.00 | 0.00 | 0.00 | 49 | 1019.1 |
| 20260507213802 | 20 | 299 | 3.2 | 3.2 | 0.00 | 0.00 | 0.00 | 47 | 1019.0 |
| 20260507213259 | 19 | 289 | 4.8 | 4.8 | 0.00 | 0.00 | 0.00 | 51 | 1019.1 |
| 20260507212756 | 19 | 323 | 3.2 | 4.8 | 0.00 | 0.00 | 0.00 | 51 | 1019.0 |
| 20260507212252 | 19 | 299 | 1.6 | 1.6 | 0.00 | 0.00 | 0.00 | 53 | 1019.1 |
| 20260507211749 | 18 | 340 | 1.6 | 1.6 | 0.00 | 0.00 | 0.00 | 52 | 1019.3 |
| 20260507211245 | 18 | 99 | 4.8 | 8.0 | 0.00 | 0.00 | 0.00 | 52 | 1019.3 |
| 20260507210742 | 18 | 305 | 0.0 | 0.0 | 0.00 | 0.00 | 0.00 | 53 | 1019.4 |
| 20260507210239 | 18 | 317 | 0.0 | 0.0 | 0.00 | 0.00 | 0.00 | 54 | 1019.5 |
| 20260507205736 | 18 | 306 | 0.0 | 1.6 | 0.00 | 0.00 | 0.00 | 54 | 1019.5 |
| 20260507205233 | 18 | 304 | 4.8 | 4.8 | 0.00 | 0.00 | 0.00 | 54 | 1019.5 |
| 20260507204729 | 18 | 278 | 1.6 | 1.6 | 0.00 | 0.00 | 0.00 | 53 | 1019.7 |
| 20260507204227 | 18 | 312 | 4.8 | 4.8 | 0.00 | 0.00 | 0.00 | 53 | 1019.7 |
| 20260507203725 | 18 | 301 | 4.8 | 8.0 | 0.00 | 0.00 | 0.00 | 52 | 1019.8 |
| 20260507203222 | 19 | 307 | 0.0 | 0.0 | 0.00 | 0.00 | 0.00 | 53 | 1019.9 |
| 20260507202718 | 19 | 301 | 4.8 | 8.0 | 0.00 | 0.00 | 0.00 | 51 | 1020.1 |
| 20260507202214 | 18 | 341 | 0.0 | 1.6 | 0.00 | 0.00 | 0.00 | 49 | 1019.9 |
| 20260507201709 | 20 | 15 | 0.0 | 1.6 | 0.00 | 0.00 | 0.00 | 53 | 1020.1 |
| 20260507201206 | 18 | 293 | 0.0 | 0.0 | 0.00 | 0.00 | 0.00 | 52 | 1020.1 |
| 20260507200702 | 18 | 243 | 3.2 | 3.2 | 0.00 | 0.00 | 0.00 | 49 | 1020.2 |
| 20260507200158 | 18 | 288 | 3.2 | 3.2 | 0.00 | 0.00 | 0.00 | 51 | 1020.3 |
| 20260507195655 | 17 | 310 | 0.0 | 1.6 | 0.00 | 0.00 | 0.00 | 56 | 1020.2 |
| 20260507195152 | 18 | 285 | 0.0 | 0.0 | 0.00 | 0.00 | 0.00 | 53 | 1020.3 |
| 20260507194649 | 18 | 307 | 0.0 | 1.6 | 0.00 | 0.00 | 0.00 | 59 | 1020.4 |
| 20260507194144 | 18 | 310 | 3.2 | 3.2 | 0.00 | 0.00 | 0.00 | 56 | 1020.3 |
| 20260507193641 | 18 | 285 | 0.0 | 1.6 | 0.00 | 0.00 | 0.00 | 59 | 1020.6 |
| 20260507193139 | 18 | 288 | 1.6 | 1.6 | 0.00 | 0.00 | 0.00 | 56 | 1020.5 |
| 20260507192634 | 17 | 304 | 0.0 | 1.6 | 0.00 | 0.00 | 0.00 | 61 | 1020.6 |
| 20260507192132 | 18 | 357 | 1.6 | 1.6 | 0.00 | 0.00 | 0.00 | 55 | 1021.0 |
| 20260507191627 | 17 | 272 | 1.6 | 3.2 | 0.00 | 0.00 | 0.00 | 57 | 1020.9 |
| 20260507191124 | 17 | 319 | 3.2 | 4.8 | 0.00 | 0.00 | 0.00 | 56 | 1020.7 |
| 20260507190622 | 17 | 285 | 0.0 | 1.6 | 0.00 | 0.00 | 0.00 | 63 | 1021.0 |
| 20260507190121 | 18 | 263 | 1.6 | 1.6 | 0.00 | 0.00 | 0.00 | 57 | 1020.9 |
| 20260507185619 | 18 | 295 | 0.0 | 1.6 | 0.00 | 0.00 | 0.00 | 61 | 1021.0 |
| 20260507185115 | 17 | 276 | 1.6 | 1.6 | 0.00 | 0.00 | 0.00 | 59 | 1021.2 |
| 20260507184613 | 17 | 281 | 0.0 | 1.6 | 0.00 | 0.00 | 0.00 | 62 | 1021.0 |
| 20260507184111 | 17 | 271 | 0.0 | 0.0 | 0.00 | 0.00 | 0.00 | 59 | 1021.1 |
| 20260507183607 | 17 | 313 | 0.0 | 1.6 | 0.00 | 0.00 | 0.00 | 62 | 1021.3 |
| 20260507183104 | 16 | 259 | 1.6 | 3.2 | 0.00 | 0.00 | 0.00 | 63 | 1021.2 |
| 20260507182600 | 16 | 147 | 3.2 | 3.2 | 0.00 | 0.00 | 0.00 | 63 | 1021.4 |
| 20260507182055 | 17 | 312 | 0.0 | 1.6 | 0.00 | 0.00 | 0.00 | 59 | 1021.3 |
| 20260507181553 | 16 | 285 | 0.0 | 0.0 | 0.00 | 0.00 | 0.00 | 64 | 1021.5 |
| 20260507181049 | 15 | 34 | 1.6 | 3.2 | 0.00 | 0.00 | 0.00 | 64 | 1021.4 |
| 20260507180545 | 15 | 315 | 3.2 | 4.8 | 0.00 | 0.00 | 0.00 | 64 | 1021.5 |
| 20260507180043 | 16 | 316 | 1.6 | 3.2 | 0.00 | 0.00 | 0.00 | 63 | 1021.5 |
| 20260507175538 | 15 | 293 | 6.4 | 8.0 | 0.00 | 0.00 | 0.00 | 65 | 1021.6 |
| 20260507175037 | 15 | 317 | 3.2 | 3.2 | 0.00 | 0.00 | 0.00 | 66 | 1021.6 |
| 20260507174533 | 15 | 276 | 1.6 | 1.6 | 0.00 | 0.00 | 0.00 | 64 | 1021.6 |
| 20260507174031 | 16 | 314 | 1.6 | 1.6 | 0.00 | 0.00 | 0.00 | 63 | 1021.8 |
| 20260507173527 | 15 | 2 | 0.0 | 0.0 | 0.00 | 0.00 | 0.00 | 66 | 1021.8 |
| 20260507173025 | 15 | 336 | 0.0 | 1.6 | 0.00 | 0.00 | 0.00 | 68 | 1021.9 |
| 20260507172521 | 14 | 296 | 1.6 | 1.6 | 0.00 | 0.00 | 0.00 | 67 | 1021.5 |
| 20260507172018 | 15 | 280 | 1.6 | 3.2 | 0.00 | 0.00 | 0.00 | 66 | 1021.8 |
| 20260507171513 | 14 | 133 | 1.6 | 3.2 | 0.00 | 0.00 | 0.00 | 67 | 1021.9 |
| 20260507171011 | 14 | 323 | 0.0 | 0.0 | 0.00 | 0.00 | 0.00 | 68 | 1021.9 |
| 20260507170507 | 14 | 306 | 4.8 | 8.0 | 0.00 | 0.00 | 0.00 | 67 | 1021.8 |
| 20260507170004 | 15 | 298 | 1.6 | 1.6 | 0.00 | 0.00 | 0.00 | 66 | 1022.0 |
| 20260507165500 | 14 | 261 | 1.6 | 3.2 | 0.00 | 0.00 | 0.00 | 66 | 1022.2 |
| 20260507164956 | 13 | 339 | 1.6 | 1.6 | 0.00 | 0.00 | 0.00 | 70 | 1022.1 |
| 20260507164453 | 13 | 330 | 3.2 | 3.2 | 0.00 | 0.00 | 0.00 | 71 | 1022.0 |
| 20260507163949 | 13 | 85 | 1.6 | 3.2 | 0.00 | 0.00 | 0.00 | 70 | 1022.0 |
| 20260507163447 | 13 | 4 | 0.0 | 1.6 | 0.00 | 0.00 | 0.00 | 72 | 1022.0 |
| 20260507162944 | 13 | 323 | 1.6 | 1.6 | 0.00 | 0.00 | 0.00 | 71 | 1022.0 |
| 20260507162439 | 13 | 311 | 3.2 | 4.8 | 0.00 | 0.00 | 0.00 | 70 | 1022.1 |
| 20260507161937 | 13 | 276 | 1.6 | 3.2 | 0.00 | 0.00 | 0.00 | 71 | 1022.0 |
| 20260507161433 | 12 | 250 | 0.0 | 1.6 | 0.00 | 0.00 | 0.00 | 72 | 1022.0 |
| 20260507160930 | 12 | 322 | 1.6 | 1.6 | 0.00 | 0.00 | 0.00 | 73 | 1022.1 |
| 20260507160426 | 12 | 11 | 1.6 | 3.2 | 0.00 | 0.00 | 0.00 | 73 | 1022.0 |
| 20260507155921 | 12 | 178 | 4.8 | 4.8 | 0.00 | 0.00 | 0.00 | 73 | 1022.0 |
| 20260507155418 | 12 | 302 | 1.6 | 1.6 | 0.00 | 0.00 | 0.00 | 74 | 1022.1 |
| 20260507154915 | 12 | 354 | 4.8 | 4.8 | 0.00 | 0.00 | 0.00 | 72 | 1022.0 |
| 20260507154412 | 12 | 301 | 1.6 | 1.6 | 0.00 | 0.00 | 0.00 | 77 | 1022.2 |
| 20260507153909 | 12 | 305 | 0.0 | 0.0 | 0.00 | 0.00 | 0.00 | 75 | 1022.0 |
| 20260507153405 | 11 | 355 | 0.0 | 1.6 | 0.00 | 0.00 | 0.00 | 76 | 1022.2 |
| 20260507152902 | 11 | 330 | 1.6 | 1.6 | 0.00 | 0.00 | 0.00 | 75 | 1022.1 |
| 20260507152358 | 11 | 295 | 0.0 | 0.0 | 0.00 | 0.00 | 0.00 | 75 | 1022.2 |
| 20260507151854 | 11 | 265 | 1.6 | 1.6 | 0.00 | 0.00 | 0.00 | 75 | 1022.1 |
| 20260507151351 | 11 | 283 | 1.6 | 1.6 | 0.00 | 0.00 | 0.00 | 76 | 1021.9 |
| 20260507150848 | 11 | 311 | 0.0 | 0.0 | 0.00 | 0.00 | 0.00 | 76 | 1021.9 |
| 20260507150345 | 11 | 298 | 1.6 | 1.6 | 0.00 | 0.00 | 0.00 | 76 | 1022.1 |
| 20260507145840 | 11 | 126 | 1.6 | 3.2 | 0.00 | 0.00 | 0.00 | 76 | 1021.9 |
| 20260507145338 | 11 | 309 | 3.2 | 3.2 | 0.00 | 0.00 | 0.00 | 76 | 1022.0 |
| 20260507144834 | 11 | 136 | 3.2 | 3.2 | 0.00 | 0.00 | 0.00 | 76 | 1021.9 |
| 20260507144331 | 11 | 296 | 0.0 | 0.0 | 0.00 | 0.00 | 0.00 | 77 | 1022.0 |
| 20260507143828 | 11 | 279 | 1.6 | 3.2 | 0.00 | 0.00 | 0.00 | 77 | 1022.2 |
| 20260507143325 | 11 | 300 | 0.0 | 0.0 | 0.00 | 0.00 | 0.00 | 77 | 1022.1 |
| 20260507142821 | 11 | 316 | 0.0 | 1.6 | 0.00 | 0.00 | 0.00 | 78 | 1021.9 |
| 20260507142318 | 11 | 319 | 0.0 | 1.6 | 0.00 | 0.00 | 0.00 | 77 | 1021.8 |
| 20260507141814 | 11 | 315 | 0.0 | 0.0 | 0.00 | 0.00 | 0.00 | 78 | 1022.0 |
| 20260507141311 | 11 | 314 | 0.0 | 0.0 | 0.00 | 0.00 | 0.00 | 79 | 1021.6 |
| 20260507140808 | 11 | 310 | 0.0 | 0.0 | 0.00 | 0.00 | 0.00 | 78 | 1021.9 |
| 20260507140305 | 11 | 311 | 0.0 | 0.0 | 0.00 | 0.00 | 0.00 | 79 | 1021.8 |
| 20260507135802 | 11 | 325 | 1.6 | 3.2 | 0.00 | 0.00 | 0.00 | 78 | 1021.8 |
| 20260507135259 | 11 | 185 | 1.6 | 3.2 | 0.00 | 0.00 | 0.00 | 79 | 1021.9 |
| 20260507134755 | 11 | 290 | 0.0 | 1.6 | 0.00 | 0.00 | 0.00 | 79 | 1021.4 |
| 20260507134252 | 11 | 300 | 1.6 | 1.6 | 0.00 | 0.00 | 0.00 | 78 | 1021.8 |
| 20260507133748 | 11 | 315 | 1.6 | 1.6 | 0.00 | 0.00 | 0.00 | 78 | 1021.5 |
| 20260507133244 | 11 | 323 | 1.6 | 1.6 | 0.00 | 0.00 | 0.00 | 79 | 1021.6 |
| 20260507132743 | 11 | 299 | 0.0 | 0.0 | 0.00 | 0.00 | 0.00 | 79 | 1021.6 |
| 20260507132239 | 11 | 314 | 0.0 | 0.0 | 0.00 | 0.00 | 0.00 | 79 | 1021.8 |
| 20260507131736 | 11 | 329 | 0.0 | 0.0 | 0.00 | 0.00 | 0.00 | 79 | 1021.6 |
| 20260507131233 | 11 | 316 | 0.0 | 0.0 | 0.00 | 0.00 | 0.00 | 79 | 1021.4 |
| 20260507130729 | 11 | 316 | 0.0 | 0.0 | 0.00 | 0.00 | 0.00 | 79 | 1021.4 |
| 20260507130227 | 11 | 199 | 1.6 | 3.2 | 0.00 | 0.00 | 0.00 | 79 | 1021.6 |
| 20260507125726 | 11 | 193 | 3.2 | 4.8 | 0.00 | 0.00 | 0.00 | 79 | 1021.8 |
| 20260507125223 | 11 | 293 | 1.6 | 1.6 | 0.00 | 0.00 | 0.00 | 79 | 1021.6 |
| 20260507124720 | 11 | 308 | 0.0 | 1.6 | 0.00 | 0.00 | 0.00 | 79 | 1021.8 |
| 20260507124217 | 11 | 301 | 0.0 | 0.0 | 0.00 | 0.00 | 0.00 | 79 | 1021.5 |
| 20260507123715 | 11 | 220 | 1.6 | 1.6 | 0.00 | 0.00 | 0.00 | 79 | 1021.5 |
| 20260507123212 | 11 | 288 | 0.0 | 1.6 | 0.00 | 0.00 | 0.00 | 79 | 1021.5 |
| 20260507122707 | 11 | 290 | 0.0 | 1.6 | 0.00 | 0.00 | 0.00 | 80 | 1021.6 |
| 20260507122203 | 11 | 306 | 1.6 | 1.6 | 0.00 | 0.00 | 0.00 | 80 | 1021.8 |
| 20260507121659 | 11 | 302 | 0.0 | 0.0 | 0.00 | 0.00 | 0.00 | 80 | 1021.6 |
| 20260507121155 | 11 | 290 | 0.0 | 1.6 | 0.00 | 0.00 | 0.00 | 81 | 1021.8 |
| 20260507120651 | 11 | 318 | 0.0 | 0.0 | 0.00 | 0.00 | 0.00 | 80 | 1021.5 |
| 20260507120148 | 11 | 312 | 0.0 | 0.0 | 0.00 | 0.00 | 0.00 | 80 | 1021.9 |
| 20260507115645 | 11 | 304 | 0.0 | 0.0 | 0.00 | 0.00 | 0.00 | 80 | 1021.8 |
| 20260507115140 | 11 | 280 | 0.0 | 1.6 | 0.00 | 0.00 | 0.00 | 81 | 1022.0 |
| 20260507114636 | 11 | 238 | 3.2 | 3.2 | 0.00 | 0.00 | 0.00 | 80 | 1021.9 |
| 20260507114134 | 11 | 299 | 0.0 | 0.0 | 0.00 | 0.00 | 0.00 | 80 | 1021.9 |
| 20260507113631 | 11 | 296 | 0.0 | 0.0 | 0.00 | 0.00 | 0.00 | 80 | 1022.0 |
| 20260507113128 | 11 | 321 | 0.0 | 0.0 | 0.00 | 0.00 | 0.00 | 79 | 1021.9 |
| 20260507112626 | 11 | 311 | 0.0 | 0.0 | 0.00 | 0.00 | 0.00 | 80 | 1021.9 |
| 20260507112122 | 11 | 307 | 1.6 | 3.2 | 0.00 | 0.00 | 0.00 | 80 | 1022.0 |
| 20260507111620 | 11 | 294 | 0.0 | 0.0 | 0.00 | 0.00 | 0.00 | 80 | 1021.9 |
| 20260507111116 | 11 | 293 | 0.0 | 0.0 | 0.00 | 0.00 | 0.00 | 80 | 1022.0 |
| 20260507110612 | 11 | 300 | 0.0 | 0.0 | 0.00 | 0.00 | 0.00 | 80 | 1022.0 |
| 20260507110109 | 11 | 297 | 0.0 | 1.6 | 0.00 | 0.00 | 0.00 | 80 | 1022.1 |
| 20260507105606 | 11 | 312 | 0.0 | 0.0 | 0.00 | 0.00 | 0.00 | 79 | 1022.0 |
| 20260507105102 | 11 | 284 | 1.6 | 1.6 | 0.00 | 0.00 | 0.00 | 80 | 1022.1 |
| 20260507104600 | 11 | 303 | 0.0 | 0.0 | 0.00 | 0.00 | 0.00 | 79 | 1022.0 |
| 20260507104056 | 11 | 318 | 0.0 | 0.0 | 0.00 | 0.00 | 0.00 | 80 | 1022.1 |
| 20260507103552 | 11 | 208 | 1.6 | 3.2 | 0.00 | 0.00 | 0.00 | 81 | 1021.9 |
| 20260507103049 | 11 | 297 | 0.0 | 0.0 | 0.00 | 0.00 | 0.00 | 81 | 1022.1 |
| 20260507102545 | 11 | 300 | 0.0 | 1.6 | 0.00 | 0.00 | 0.00 | 81 | 1022.2 |
| 20260507102042 | 12 | 306 | 0.0 | 0.0 | 0.00 | 0.00 | 0.00 | 80 | 1022.2 |
| 20260507101537 | 12 | 296 | 0.0 | 0.0 | 0.00 | 0.00 | 0.00 | 80 | 1022.3 |
| 20260507101033 | 12 | 307 | 0.0 | 0.0 | 0.00 | 0.00 | 0.00 | 80 | 1022.0 |